Location: Unspecified
(0.0000°N, 0.0000°E)
Time: 10:37:56
(UTC+00:00)

A-11 Canister half - Visible Passes

Search period start: 03 July 2015 00:00
Search period end: 13 July 2015 00:00
Orbit: 1527 x 1682 km, 47.3° (Epoch: 02 July)

Date Brightness Start Highest point End Pass type
(mag) Time Alt. Az. Time Alt. Az. Time Alt. Az.
03 Jul 10.4 21:47:12 10° NNW 21:50:58 27° NNW 21:50:58 27° NNW visible
04 Jul 10.1 21:25:46 10° NNW 21:30:34 32° N 21:30:34 32° N visible
05 Jul 9.8 21:04:21 10° NNW 21:10:15 36° N 21:10:15 36° N visible
06 Jul 9.6 20:42:56 10° NNW 20:49:58 39° NNE 20:49:58 39° NNE visible
06 Jul 11.1 22:47:45 10° WNW 22:48:17 12° WNW 22:48:17 12° WNW visible
07 Jul 9.5 20:21:32 10° NNW 20:29:43 39° NE 20:29:43 39° NE visible
07 Jul 10.8 22:26:04 10° WNW 22:28:02 18° WNW 22:28:02 18° WNW visible
08 Jul 9.6 20:00:10 10° NNW 20:08:18 36° NE 20:09:32 35° ENE visible
08 Jul 10.5 22:04:24 10° WNW 22:07:52 25° WNW 22:07:52 25° WNW visible
09 Jul 9.7 19:38:47 10° NNW 19:46:45 33° NE 19:49:25 29° ENE visible
09 Jul 10.1 21:42:45 10° WNW 21:47:44 33° WNW 21:47:44 33° WNW visible
10 Jul 9.8 19:17:27 10° N 19:25:10 31° NE 19:29:20 23° E visible
10 Jul 9.7 21:21:08 10° NW 21:27:39 44° W 21:27:39 44° W visible
11 Jul 9.9 18:56:06 10° N 19:03:35 29° NE 19:09:18 17° E visible
11 Jul 9.3 20:59:30 10° NW 21:07:38 56° WSW 21:07:38 56° WSW visible
12 Jul 10.0 18:34:47 10° N 18:42:01 26° NE 18:49:19 11° E visible
12 Jul 9.1 20:37:54 10° NW 20:47:03 62° SW 20:47:39 61° SSW visible
